Theta_e
323 320 320 316 304 303 300 303 308 306 306 311 315 313 313 315 313 309 330 331 337 334 336 341 345 344 343 342 345 346 347 347 344 344 343 342 343 343 342 342 344 342 337 337 337 338 337 337 336
316 318 317 313 299 295 298 305 305 307 312 314 313 311 312 313 323 326 326 330 336 334 332 338 342 344 343 341 344 345 346 346 342 341 340 341 341 342 342 343 343 341 337 336 336 336 336 335 335
318 316 310 307 301 295 298 304 308 312 313 313 311 314 314 316 325 327 328 330 335 330 333 338 342 344 344 343 344 344 344 342 342 339 339 339 341 339 340 341 341 338 336 336 335 334 334 335 334
314 314 311 301 298 300 301 307 311 311 312 315 314 311 319 326 325 330 329 334 334 330 335 339 342 344 344 342 343 343 343 341 339 340 338 337 338 338 337 339 338 336 335 335 334 333 333 334 334
313 311 302 301 301 300 303 305 312 310 310 311 312 309 316 326 333 331 328 334 331 328 334 338 341 342 343 343 343 343 342 342 341 339 337 336 336 337 335 335 335 334 334 334 333 332 333 333 332
309 310 299 298 301 301 302 304 309 310 311 312 309 312 318 329 330 329 329 333 333 329 333 336 335 338 341 341 342 342 342 342 341 340 338 336 336 335 334 334 335 335 334 333 332 330 331 332 330
306 306 301 301 302 302 303 306 305 310 308 310 312 307 320 325 331 331 328 332 333 331 332 334 335 334 335 337 339 341 342 341 341 340 339 338 336 336 335 335 334 334 333 332 331 329 329 329 329
308 307 303 303 302 302 305 306 306 308 307 313 314 305 314 325 331 331 328 329 333 331 329 331 332 333 334 333 332 334 336 338 337 335 333 331 331 331 331 330 333 333 333 331 329 328 327 327 325
312 303 300 302 303 304 307 305 306 309 309 310 314 315 322 330 331 329 326 324 332 332 330 329 331 330 332 333 329 329 330 331 331 330 327 326 327 328 328 327 330 331 332 330 328 326 325 324 323
304 302 305 310 308 305 306 306 307 306 307 308 312 324 328 328 328 326 324 321 326 329 330 329 329 330 331 333 331 332 330 329 330 330 327 328 327 326 327 322 326 328 327 328 326 323 324 322 317
304 302 310 306 305 304 304 303 307 304 304 308 309 318 325 325 325 325 325 324 323 328 331 330 329 329 330 328 329 330 330 328 329 329 328 328 327 325 325 322 320 319 318 320 321 319 320 320 319
299 304 305 305 304 302 302 303 304 304 304 309 307 320 324 322 323 325 324 324 323 327 329 331 330 329 329 329 328 329 328 328 328 327 328 326 325 323 324 323 322 322 319 318 318 319 319 319 319
299 301 303 303 302 301 302 300 299 300 306 307 308 320 323 322 323 325 326 325 326 325 328 330 329 330 330 329 329 329 327 327 326 326 327 326 324 323 323 323 322 322 321 320 318 318 318 318 319
303 303 301 302 301 301 299 299 300 301 304 304 306 315 319 322 324 325 325 325 325 325 327 329 329 330 332 329 329 329 328 327 326 325 325 326 324 324 323 322 321 320 319 319 318 317 317 317 317
308 301 299 300 300 300 300 296 298 301 301 302 305 307 316 320 323 323 325 325 326 326 327 328 329 330 330 330 330 329 330 329 326 325 326 325 325 323 323 322 321 321 319 318 317 317 316 316 317
300 301 295 302 302 300 299 296 304 303 301 301 302 305 310 316 319 323 325 326 327 327 327 327 330 329 330 329 330 329 328 328 328 327 325 324 324 324 323 323 322 322 320 319 316 316 315 315 315
298 294 297 301 303 301 297 298 306 308 302 299 300 303 307 311 315 319 322 326 327 328 328 326 327 327 328 328 329 329 328 328 328 327 326 325 325 324 323 323 323 323 321 319 318 317 316 315 316
293 295 296 298 302 302 296 297 305 300 300 301 300 300 304 310 313 317 321 324 326 328 328 328 327 326 327 328 326 326 326 326 327 327 327 327 325 324 322 322 322 322 320 320 320 319 319 318 318
301 301 300 303 303 298 297 300 302 305 299 298 299 299 301 306 313 317 319 321 324 326 327 328 328 327 327 326 325 325 324 327 325 326 327 327 326 324 322 322 322 320 318 319 319 317 316 315 316
302 300 300 303 297 294 295 296 300 301 303 304 302 301 301 303 307 313 319 320 323 324 326 327 329 330 329 328 328 327 326 327 326 328 328 328 328 326 323 322 321 319 319 318 318 313 312 314 314
297 298 299 298 295 293 291 291 295 299 302 303 305 306 305 303 303 307 317 320 322 323 324 326 329 331 330 329 329 327 326 324 325 326 327 328 328 326 323 322 321 320 320 317 317 315 315 313 314
295 301 299 297 292 288 292 285 295 299 299 300 303 304 305 304 303 305 312 317 320 323 324 326 328 329 330 330 329 327 325 323 325 326 327 327 328 327 326 324 322 321 319 317 319 318 316 315 313
298 300 297 296 291 289 289 283 290 297 295 298 299 300 303 306 302 302 308 315 321 322 323 325 327 328 328 330 330 328 326 326 326 326 326 327 327 327 326 325 323 322 320 319 318 315 316 316 315
301 297 296 291 290 283 288 288 288 293 295 296 298 299 301 302 302 301 303 311 317 319 322 323 324 326 327 329 329 328 326 325 325 325 325 326 327 328 326 326 325 324 321 319 319 318 316 315 316
295 291 280 280 281 281 287 287 291 296 298 297 298 297 296 301 302 301 300 300 305 312 319 321 323 323 325 327 328 329 328 327 326 325 326 325 326 326 327 326 325 324 324 322 320 318 316 317 316
293 292 283 277 278 280 281 281 287 296 300 299 297 295 295 293 298 301 301 301 301 305 309 314 319 322 322 325 327 329 329 328 328 327 327 326 327 327 326 326 324 324 323 321 321 320 320 318 316
291 288 293 282 276 278 282 286 292 295 294 293 293 294 294 296 296 296 298 300 300 300 302 305 307 311 317 321 325 326 327 327 327 325 325 326 326 324 324 325 323 322 321 320 319 318 315 314 314
294 297 289 285 274 274 281 282 285 290 292 293 293 294 295 296 297 297 297 299 299 298 299 300 301 301 303 309 316 322 323 322 324 323 322 323 322 321 322 325 324 320 320 320 319 316 313 313 311
287 290 290 289 285 279 278 282 290 292 293 293 292 293 292 293 294 296 296 298 299 300 300 299 299 299 300 304 308 313 315 317 319 320 320 324 324 323 324 322 322 321 321 319 318 315 312 310 306
294 291 293 286 282 282 281 282 289 291 292 293 292 293 291 292 294 294 296 298 300 301 301 301 301 300 302 306 309 312 313 314 314 315 317 320 321 321 320 317 316 318 317 316 315 310 309 307 304
Wind_Speed
9 8 4 2 1 3 4 4 9 8 4 4 8 7 12 8 6 7 6 13 17 14 10 10 10 13 13 12 11 12 14 16 17 17 16 16 17 15 14 15 16 17 17 17 17 17 16 16 16
6 11 2 4 2 5 2 8 7 5 8 9 5 2 5 5 7 10 7 9 16 13 12 9 10 12 13 13 11 11 13 15 15 15 15 15 15 15 15 17 17 15 16 16 16 16 16 16 14
4 8 2 2 5 3 2 5 12 10 6 6 4 5 5 4 10 10 12 11 15 10 12 9 10 13 11 12 12 11 11 12 15 13 13 14 15 15 15 16 17 16 14 16 15 15 15 15 14
4 2 4 2 9 4 7 8 11 8 5 8 4 8 6 6 10 9 11 13 12 12 13 9 10 15 13 11 13 12 12 11 13 13 13 13 13 15 14 13 16 13 15 15 14 14 14 14 13
3 3 3 4 7 5 5 6 9 7 8 6 2 5 5 3 14 14 11 11 10 13 11 9 10 14 11 8 12 14 11 12 15 14 14 13 11 14 14 11 12 13 14 14 14 14 14 13 12
3 2 3 5 7 6 3 3 2 5 6 6 2 8 4 6 10 10 9 11 9 12 11 9 10 10 10 10 10 12 11 11 15 14 13 14 13 12 11 11 10 12 12 13 13 13 13 12 11
2 2 6 8 6 2 4 4 4 7 5 5 3 3 5 7 8 9 9 11 10 11 11 8 7 8 8 9 9 11 10 10 12 13 12 12 11 11 10 10 10 10 11 12 12 12 11 11 10
3 2 6 7 5 4 5 5 2 4 4 2 4 1 6 9 9 9 9 8 13 7 9 9 8 7 7 6 8 10 11 12 12 11 11 10 10 10 9 9 9 9 10 10 10 10 10 9 8
1 4 6 7 8 2 6 6 2 3 7 2 3 5 9 15 7 9 8 7 11 6 6 8 8 7 8 8 6 7 9 10 10 8 9 9 5 6 6 7 9 8 8 9 8 7 6 6 5
4 3 8 10 7 4 7 5 9 4 5 5 7 10 13 11 7 12 11 9 9 9 5 8 8 8 9 9 7 6 6 5 5 5 6 4 5 4 8 6 7 7 7 7 6 3 3 4 3
5 5 9 3 7 7 6 1 3 6 8 8 13 13 12 9 9 11 11 10 9 12 5 4 8 7 7 7 5 3 4 4 4 7 6 3 5 4 4 3 3 3 4 3 4 3 2 4 4
3 5 6 4 3 3 3 2 5 6 2 6 3 20 16 15 13 13 11 12 9 14 14 7 5 7 7 5 4 5 4 4 4 4 4 3 3 4 4 4 5 4 3 3 1 2 2 2 2
7 1 4 5 5 3 4 4 5 5 10 6 5 18 18 15 13 10 9 8 11 12 14 13 8 7 4 6 4 5 5 4 5 5 5 4 4 4 3 3 3 3 3 3 2 2 2 1 1
2 6 6 5 6 5 4 5 6 7 10 6 8 12 13 16 16 12 14 13 15 13 15 15 11 8 9 5 6 5 5 5 4 5 6 6 5 5 5 4 3 3 3 3 2 2 1 0 2
7 9 1 6 7 5 5 7 9 7 3 5 10 7 10 14 15 17 15 14 13 12 13 16 15 12 14 13 6 4 5 5 5 4 6 7 5 6 6 5 4 4 3 3 2 1 1 2 2
1 9 6 10 9 5 8 7 11 13 10 10 9 10 9 12 14 15 13 13 11 12 14 14 14 15 12 11 8 4 5 4 5 5 5 7 6 6 5 4 4 4 4 3 3 3 3 3 2
2 6 13 5 11 6 9 6 10 8 9 9 9 10 11 10 10 10 11 14 14 12 12 13 13 16 14 10 9 7 7 5 3 5 5 7 7 6 5 4 5 6 4 4 3 3 3 2 3
8 8 5 11 10 9 9 13 9 3 4 8 9 9 10 12 13 9 11 12 11 12 11 11 10 13 13 8 7 5 5 5 4 4 6 8 6 7 5 4 5 5 4 4 3 3 2 2 2
12 12 12 8 4 6 8 13 12 10 8 9 9 8 8 10 10 11 10 9 11 13 14 14 15 14 11 10 8 6 7 6 4 4 6 8 8 8 6 4 5 5 5 5 5 3 4 1 1
12 14 12 7 9 2 6 14 10 10 11 11 12 10 10 8 11 13 15 12 13 15 16 17 16 16 14 11 9 6 6 7 7 7 7 7 10 10 7 6 5 6 5 6 6 5 2 2 4
6 10 8 5 6 4 5 11 12 11 12 11 11 10 11 12 10 9 17 18 15 16 17 17 18 17 15 12 8 4 4 3 7 7 7 8 7 9 9 8 7 8 8 7 6 6 6 4 4
13 7 4 4 5 4 9 7 5 8 16 14 18 14 14 12 11 11 15 15 14 15 12 13 14 14 13 15 11 12 10 8 7 8 6 6 8 9 12 11 10 9 7 6 8 7 6 4 4
5 9 6 3 3 5 6 3 6 9 7 13 15 15 17 15 10 11 12 14 18 16 15 14 15 13 12 14 15 11 10 9 6 5 8 7 7 8 11 12 12 11 7 7 7 6 7 6 4
1 10 4 2 2 8 10 9 6 7 8 6 7 11 15 13 11 9 8 10 11 9 11 11 13 15 13 13 15 15 14 11 9 8 8 7 6 8 9 11 12 10 9 9 9 8 8 8 6
7 13 4 3 5 7 3 10 14 7 8 7 9 8 5 13 13 11 12 10 9 11 13 11 13 15 14 15 16 17 16 14 13 10 9 9 8 7 11 12 11 9 10 9 7 8 8 8 7
14 12 6 8 6 3 2 9 7 11 12 9 5 4 4 2 2 9 11 11 11 11 10 10 10 14 11 14 16 15 15 10 10 11 9 8 8 10 9 9 7 7 8 8 8 7 7 8 7
14 15 3 7 3 3 6 6 8 14 8 4 3 2 5 7 7 7 7 9 9 9 10 11 9 8 8 11 12 14 13 14 11 8 7 7 8 6 8 9 9 8 8 9 9 7 6 6 6
14 9 6 2 5 5 6 5 8 5 9 7 7 8 9 9 9 8 6 6 4 4 4 6 8 10 8 6 7 9 10 8 8 7 8 7 6 7 8 10 11 9 9 9 10 6 6 7 4
7 13 7 6 4 5 1 7 6 9 8 8 5 3 3 3 3 6 7 7 5 3 5 4 5 5 7 8 6 7 7 8 7 7 7 8 6 7 8 7 8 9 10 9 9 8 8 8 7
14 7 12 6 7 3 4 8 3 1 8 8 4 2 1 1 0 3 7 8 6 5 5 6 6 7 6 6 5 6 5 6 6 6 7 6 8 6 7 7 7 8 8 8 9 8 8 9 9
Wind_Direction
304 295 254 316 303 206 243 87 82 86 115 20 61 19 84 55 28 124 150 110 125 114 126 105 109 102 97 94 83 92 96 90 85 85 82 83 81 81 86 86 82 77 74 72 69 67 67 67 68
315 307 268 271 225 245 169 115 136 132 91 89 106 120 69 89 80 116 118 138 117 130 124 118 116 109 103 99 86 80 96 94 89 89 88 88 86 79 76 82 82 78 76 76 71 68 66 67 67
275 284 310 292 252 322 51 137 87 83 103 135 103 23 29 85 114 151 126 133 108 122 115 121 112 112 108 103 93 78 91 93 92 94 94 92 92 77 67 76 79 80 79 75 73 73 75 72 69
318 253 268 251 265 62 26 78 100 106 19 352 21 84 74 309 151 116 138 128 130 111 114 123 111 114 111 111 104 94 90 103 107 101 102 93 89 86 77 72 77 82 82 76 72 71 73 74 72
246 276 270 244 285 95 78 5 126 161 154 158 251 110 88 30 97 129 135 130 123 112 121 126 114 111 117 114 127 114 113 109 105 108 105 98 88 87 85 88 93 90 87 80 74 74 75 74 65
274 248 253 234 248 108 103 104 197 186 134 96 154 116 100 124 124 143 142 123 132 118 133 132 122 108 106 101 103 123 128 130 123 121 116 110 103 98 96 90 82 90 88 81 76 77 78 73 63
243 187 239 253 215 130 170 135 198 190 131 155 334 106 115 158 148 146 145 129 125 132 126 132 132 122 117 117 105 113 98 136 124 120 112 109 106 103 92 88 89 92 92 85 79 78 79 77 66
294 246 235 243 190 222 120 153 355 232 144 5 32 266 156 171 156 150 136 130 129 133 141 147 138 149 136 128 114 115 111 108 113 114 116 116 116 119 115 102 89 94 98 93 86 82 83 82 69
241 236 228 203 215 150 151 175 182 330 126 146 99 45 116 129 182 154 135 136 127 148 155 151 153 154 147 130 124 112 114 118 118 127 143 149 147 148 110 94 102 99 99 102 97 93 95 109 117
217 236 231 204 189 173 160 202 155 162 164 143 106 94 111 137 185 166 156 165 148 152 214 154 161 163 155 150 156 144 140 156 164 166 182 205 116 100 113 106 110 110 108 110 114 140 214 210 211
207 237 248 69 54 21 121 201 165 190 193 182 172 152 146 159 190 178 171 172 168 159 177 233 164 162 156 136 168 158 165 180 161 169 202 167 106 124 131 138 153 150 183 177 169 217 257 40 30
265 262 297 88 92 113 182 4 173 217 203 121 170 160 153 174 190 187 187 167 164 161 185 205 222 161 163 138 177 167 166 160 155 174 167 121 136 183 168 164 186 175 182 147 205 110 61 56 74
275 266 300 95 145 199 80 215 218 224 243 120 75 154 162 173 190 200 195 174 178 174 176 189 214 159 176 160 186 169 170 158 173 168 170 167 189 170 168 158 143 182 152 165 180 145 164 143 73
335 229 229 162 195 186 205 232 130 235 239 229 156 167 171 179 188 193 196 195 185 182 174 177 199 173 192 212 189 183 166 168 188 166 170 204 190 172 172 158 174 169 165 185 178 162 146 179 124
268 272 235 196 223 220 178 271 227 231 231 259 164 203 181 186 183 199 196 193 182 187 177 176 182 188 197 202 224 196 171 165 181 176 178 188 196 182 165 169 176 185 175 131 122 106 180 244 228
114 264 210 204 193 187 160 248 229 208 207 202 199 194 206 191 195 191 188 190 193 181 183 174 176 186 200 187 204 208 183 177 180 171 182 180 199 185 176 173 185 179 149 161 185 193 219 225 226
313 209 215 192 192 152 184 252 234 250 197 199 220 199 197 198 196 185 187 185 191 183 184 182 172 181 199 198 190 190 180 189 207 179 179 183 184 198 176 188 186 169 163 173 183 204 183 239 243
148 188 254 224 189 218 194 245 261 236 253 223 229 236 201 185 201 191 188 182 183 183 191 184 181 180 193 206 191 179 162 167 202 225 179 178 180 192 193 192 187 162 161 180 164 182 217 187 259
172 195 207 207 178 164 231 252 244 237 200 223 234 237 235 198 185 183 191 183 179 182 188 196 191 188 186 200 194 184 187 180 187 229 223 182 175 186 189 191 164 147 169 202 181 180 203 281 163
174 204 213 216 126 128 270 260 244 230 234 216 206 219 228 214 187 183 182 184 187 189 188 198 198 194 192 192 193 191 182 195 204 211 215 194 189 178 181 181 173 173 179 196 188 166 157 206 187
180 211 192 192 140 218 293 274 242 240 238 225 232 222 214 213 202 191 183 190 186 192 194 200 202 196 196 188 182 180 174 168 193 205 209 200 192 171 173 175 182 193 194 190 189 175 182 187 214
189 197 195 154 128 243 155 283 259 228 231 216 223 226 223 222 201 197 185 185 189 205 201 201 206 198 194 188 186 194 200 194 204 203 202 190 193 179 184 184 190 194 192 191 191 185 191 163 197
204 148 171 152 185 333 232 269 257 223 217 209 215 219 226 223 213 197 186 180 190 192 196 197 200 201 193 189 195 193 200 206 184 190 185 196 200 191 183 186 193 198 188 196 182 177 194 197 162
12 116 113 80 158 251 209 214 225 228 232 229 219 215 213 215 225 203 191 182 195 185 189 195 194 207 198 193 194 200 203 197 200 192 196 194 199 197 193 195 201 194 187 190 195 193 191 195 193
184 139 131 189 202 231 138 222 246 256 237 232 225 211 216 205 204 200 186 197 188 184 189 191 194 206 199 195 199 203 205 202 202 195 199 190 190 193 204 196 199 187 194 191 178 182 186 195 191
197 182 157 178 193 220 341 241 249 243 246 256 256 252 104 344 234 206 194 184 184 183 188 185 188 205 197 195 204 205 207 209 207 202 197 194 192 197 185 194 188 186 183 175 173 190 192 181 183
190 215 151 101 28 71 208 262 294 263 245 249 246 180 230 244 252 229 192 175 183 183 186 188 192 208 203 203 198 203 206 208 210 199 192 196 186 182 180 182 179 183 184 180 177 186 184 170 177
199 150 213 266 151 232 257 229 237 248 226 204 197 220 235 230 220 217 198 178 173 167 167 173 188 203 204 211 199 197 198 194 195 187 198 187 180 175 178 183 182 182 185 185 182 179 161 167 147
174 192 212 140 187 175 213 253 219 236 206 189 154 177 223 175 249 229 169 147 150 146 171 201 213 200 203 207 203 187 190 192 185 186 187 187 185 178 192 173 179 181 181 179 179 165 161 156 144
218 215 193 176 222 174 140 265 230 80 114 120 86 316 19 21 230 104 134 136 153 180 184 192 198 204 206 199 200 193 180 179 184 189 186 191 212 184 175 184 185 180 173 172 175 162 158 156 159